SR9WXGR Weather Reports


Display with metric or nautical units.
time (UTC)temp
F
wind
direction
speed
MPH
gust
MPH
rain 1hr
in
rain 24hr
in
rain mn
in
humidity
%
barometer
mb
20260507233500 57 0.0 0.0 0.00 0.00 0.00 96 975.0
20260507223501 59 0.0 0.0 0.00 0.00 0.00 96 975.0
20260507213500 59 0.0 0.0 0.00 0.00 0.00 96 975.0
20260507203501 60 0.0 0.0 0.00 0.00 0.00 96 975.0
20260507193500 60 0.0 0.0 0.00 0.00 0.00 96 974.0
20260507183500 60 0.0 0.0 0.00 0.00 0.00 96 974.0
20260507173500 62 0.0 0.0 0.00 0.00 0.00 96 973.0
20260507163500 62 0.0 0.0 0.00 0.00 0.00 95 973.0
20260507153500 64 0.0 0.0 0.00 0.00 0.00 82 973.0
20260507143500 68 0.0 0.0 0.00 0.00 0.00 60 973.0
20260507133500 71 0.0 0.0 0.00 0.00 0.00 43 972.0
20260507123500 78 0.0 0.0 0.00 0.00 0.00 28 972.0
20260507113500 78 0.0 0.0 0.00 0.00 0.00 28 972.0
20260507103500 78 0.0 0.0 0.00 0.00 0.00 29 972.0
20260507093500 77 0.0 0.0 0.00 0.00 0.00 30 971.0
20260507083500 75 0.0 0.0 0.00 0.00 0.00 33 971.0
20260507073500 73 0.0 0.0 0.00 0.00 0.00 35 970.0
20260507063500 69 0.0 0.0 0.00 0.00 0.00 40 970.0
20260507053500 68 0.0 0.0 0.00 0.00 0.00 40 970.0
20260507043500 66 0.0 0.0 0.00 0.00 0.00 44 970.0
20260507033501 66 0.0 0.0 0.00 0.00 0.00 41 969.0
20260507013500 66 0.0 0.0 0.00 0.00 0.00 55 969.0
20260507003500 68 0.0 0.0 0.00 0.00 0.00 41 969.0